FW0069 Weather Reports


Display with metric or nautical units.
time (UTC)temp
F
wind
direction
speed
MPH
gust
MPH
rain 1hr
in
rain 24hr
in
rain mn
in
humidity
%
barometer
mb
20260506002519 74 360 2.0 5.0 0.00 0.00 0.00 20 1008.8
20260506001518 75 360 3.0 8.0 0.00 0.00 0.00 20 1009.0
20260506000518 75 360 7.0 7.0 0.00 0.00 0.00 19 1008.9
20260505235018 75 360 4.0 9.0 0.00 0.00 0.00 19 1008.9
20260505234519 74 360 4.0 6.0 0.00 0.00 0.00 20 1008.9
20260505234019 74 66 0.0 7.0 0.00 0.00 0.00 20 1008.9
20260505233519 75 360 1.0 7.0 0.00 0.00 0.00 20 1008.8
20260505233018 74 360 2.0 7.0 0.00 0.00 0.00 19 1008.8
20260505232519 75 265 1.0 7.0 0.00 0.00 0.00 19 1008.7
20260505232018 74 360 1.0 4.0 0.00 0.00 0.00 20 1008.8
20260505231519 74 360 1.0 4.0 0.00 0.00 0.00 20 1008.9
20260505231018 73 360 1.0 4.0 0.00 0.00 0.00 19 1008.9
20260505230018 75 360 2.0 8.0 0.00 0.00 0.00 19 1009.1
20260505225518 75 360 2.0 9.0 0.00 0.00 0.00 18 1009.5
20260505225018 75 360 6.0 9.0 0.00 0.00 0.00 19 1009.6
20260505224520 75 360 9.0 9.0 0.00 0.00 0.00 18 1009.7
20260505224019 74 360 1.0 9.0 0.00 0.00 0.00 18 1009.5
20260505223519 74 360 8.0 9.0 0.00 0.00 0.00 19 1009.5
20260505223018 74 360 2.0 11.0 0.00 0.00 0.00 19 1009.5
20260505221519 74 191 3.0 9.0 0.00 0.00 0.00 19 1009.5
20260505221018 74 360 3.0 11.0 0.00 0.00 0.00 19 1009.5
20260505220518 75 360 4.0 11.0 0.00 0.00 0.00 19 1009.8
20260505220018 74 360 3.0 6.0 0.00 0.00 0.00 20 1009.8
20260505215018 74 107 3.0 9.0 0.00 0.00 0.00 20 1010.0
20260505214518 74 87 5.0 9.0 0.00 0.00 0.00 19 1010.0
20260505214018 73 360 3.0 8.0 0.00 0.00 0.00 20 1009.9
20260505213518 73 360 3.0 8.0 0.00 0.00 0.00 20 1009.9
20260505212518 74 360 4.0 11.0 0.00 0.00 0.00 20 1010.4
20260505212018 74 360 5.0 10.0 0.00 0.00 0.00 20 1010.4
20260505211518 75 360 5.0 10.0 0.00 0.00 0.00 20 1010.5
20260505211018 73 139 4.0 7.0 0.00 0.00 0.00 21 1010.3
20260505210519 74 360 1.0 7.0 0.00 0.00 0.00 21 1010.7
20260505210018 74 360 4.0 7.0 0.00 0.00 0.00 20 1010.7
20260505205519 73 360 4.0 9.0 0.00 0.00 0.00 22 1010.7
20260505205018 74 128 5.0 9.0 0.00 0.00 0.00 20 1010.8
20260505204519 73 360 4.0 12.0 0.00 0.00 0.00 22 1010.8
20260505204018 74 120 2.0 12.0 0.00 0.00 0.00 21 1010.8
20260505203018 73 122 7.0 14.0 0.00 0.00 0.00 23 1010.7
20260505202518 72 72 9.0 9.0 0.00 0.00 0.00 23 1010.7
20260505201518 73 90 9.0 10.0 0.00 0.00 0.00 23 1010.7
20260505201019 72 69 4.0 8.0 0.00 0.00 0.00 24 1010.8
20260505200018 72 360 3.0 9.0 0.00 0.00 0.00 24 1010.9
20260505195518 72 360 3.0 9.0 0.00 0.00 0.00 24 1011.0
20260505195018 71 360 8.0 9.0 0.00 0.00 0.00 24 1010.9
20260505194518 71 360 3.0 9.0 0.00 0.00 0.00 25 1011.0
20260505194018 72 360 7.0 10.0 0.00 0.00 0.00 24 1011.1
20260505193020 72 360 2.0 7.0 0.00 0.00 0.00 24 1011.1
20260505192518 72 360 3.0 8.0 0.00 0.00 0.00 24 1011.2
20260505192018 71 360 4.0 8.0 0.00 0.00 0.00 25 1011.1
20260505191519 71 266 1.0 8.0 0.00 0.00 0.00 25 1011.2
20260505191018 71 360 3.0 10.0 0.00 0.00 0.00 26 1011.2
20260505190519 71 360 5.0 10.0 0.00 0.00 0.00 26 1011.2
20260505190018 71 76 10.0 10.0 0.00 0.00 0.00 26 1011.3
20260505185519 70 360 4.0 7.0 0.00 0.00 0.00 28 1011.5
20260505185018 70 360 4.0 7.0 0.00 0.00 0.00 27 1011.5
20260505184519 70 56 2.0 10.0 0.00 0.00 0.00 27 1011.6
20260505184018 71 72 2.0 10.0 0.00 0.00 0.00 27 1011.7
20260505183518 71 360 4.0 9.0 0.00 0.00 0.00 27 1011.6
20260505183017 70 91 3.0 9.0 0.00 0.00 0.00 27 1011.5
20260505182018 69 360 3.0 7.0 0.00 0.00 0.00 30 1011.4
20260505181518 69 360 6.0 9.0 0.00 0.00 0.00 29 1011.5
20260505180517 68 360 4.0 10.0 0.00 0.00 0.00 29 1011.5
20260505180018 68 360 3.0 6.0 0.00 0.00 0.00 30 1011.5
20260505174518 67 360 1.0 5.0 0.00 0.00 0.00 32 1011.5
20260505174018 67 360 2.0 5.0 0.00 0.00 0.00 32 1011.5
20260505173518 66 109 1.0 6.0 0.00 0.00 0.00 33 1011.3
20260505173018 67 105 1.0 6.0 0.00 0.00 0.00 32 1011.4
20260505172017 66 360 2.0 8.0 0.00 0.00 0.00 33 1011.3
20260505171517 66 360 5.0 8.0 0.00 0.00 0.00 33 1011.4
20260505170518 66 360 6.0 8.0 0.00 0.00 0.00 34 1011.5
20260505170018 65 360 1.0 7.0 0.00 0.00 0.00 35 1011.4
20260505165517 65 360 1.0 7.0 0.00 0.00 0.00 35 1011.6
20260505165017 65 360 3.0 7.0 0.00 0.00 0.00 35 1011.7
20260505164518 65 360 1.0 7.0 0.00 0.00 0.00 35 1011.7
20260505164018 64 360 1.0 6.0 0.00 0.00 0.00 38 1011.6
20260505163518 64 360 2.0 7.0 0.00 0.00 0.00 38 1011.6
20260505163018 63 360 2.0 8.0 0.00 0.00 0.00 38 1011.6
20260505162518 63 360 4.0 8.0 0.00 0.00 0.00 38 1011.6
20260505162018 63 360 2.0 7.0 0.00 0.00 0.00 39 1011.7
20260505161518 63 360 3.0 8.0 0.00 0.00 0.00 39 1011.7
20260505161018 63 360 4.0 8.0 0.00 0.00 0.00 39 1011.7
20260505160518 63 360 5.0 7.0 0.00 0.00 0.00 38 1011.7
20260505153018 61 360 2.0 7.0 0.00 0.00 0.00 42 1011.4
20260505152518 61 106 0.0 6.0 0.00 0.00 0.00 41 1011.3
20260505152017 60 86 5.0 6.0 0.00 0.00 0.00 42 1011.4
20260505151518 61 28 4.0 5.0 0.00 0.00 0.00 42 1011.5
20260505151017 60 360 3.0 6.0 0.00 0.00 0.00 43 1011.4
20260505150518 61 101 2.0 6.0 0.00 0.00 0.00 42 1011.3
20260505140518 57 360 3.0 8.0 0.00 0.00 0.00 45 1010.8
20260505125018 56 360 7.0 8.0 0.00 0.00 0.00 46 1010.4
20260505124518 56 360 4.0 9.0 0.00 0.00 0.00 46 1010.4
20260505124018 56 82 6.0 9.0 0.00 0.00 0.00 46 1010.3
20260505123518 56 74 5.0 9.0 0.00 0.00 0.00 46 1010.3
20260505123018 56 360 3.0 9.0 0.00 0.00 0.00 46 1010.3
20260505122517 56 360 5.0 9.0 0.00 0.00 0.00 46 1010.3
20260505122018 56 94 5.0 8.0 0.00 0.00 0.00 45 1010.2
20260505121517 56 82 6.0 8.0 0.00 0.00 0.00 45 1010.2
20260505121018 56 78 4.0 8.0 0.00 0.00 0.00 45 1010.2
20260505115518 56 84 6.0 7.0 0.00 0.00 0.00 45 1010.3
20260505115017 57 79 5.0 8.0 0.00 0.00 0.00 45 1010.3
20260505114518 57 69 3.0 9.0 0.00 0.00 0.00 45 1010.3
20260505114017 57 83 7.0 9.0 0.00 0.00 0.00 44 1010.3
20260505113018 57 103 4.0 10.0 0.00 0.00 0.00 44 1010.2
20260505112517 57 92 6.0 10.0 0.00 0.00 0.00 44 1010.2
20260505111517 57 360 4.0 8.0 0.00 0.00 0.00 44 1010.1
20260505111017 57 81 5.0 8.0 0.00 0.00 0.00 43 1010.0
20260505110517 57 100 8.0 8.0 0.00 0.00 0.00 43 1010.0
20260505102017 58 360 4.0 7.0 0.00 0.00 0.00 42 1010.1
20260505101517 58 74 4.0 7.0 0.00 0.00 0.00 41 1010.1
20260505101017 58 71 3.0 7.0 0.00 0.00 0.00 41 1009.9
20260505100517 58 78 2.0 7.0 0.00 0.00 0.00 40 1009.8
20260505100017 58 360 1.0 10.0 0.00 0.00 0.00 40 1009.8
20260505095517 59 107 4.0 10.0 0.00 0.00 0.00 40 1009.9
20260505095017 59 360 3.0 6.0 0.00 0.00 0.00 40 1009.9
20260505094517 59 360 2.0 5.0 0.00 0.00 0.00 40 1009.9
20260505094017 59 50 3.0 7.0 0.00 0.00 0.00 40 1009.9
20260505093517 59 96 1.0 10.0 0.00 0.00 0.00 39 1009.9
20260505092517 59 96 3.0 11.0 0.00 0.00 0.00 39 1009.8
20260505092017 59 360 7.0 11.0 0.00 0.00 0.00 39 1009.8
20260505091518 60 57 9.0 11.0 0.00 0.00 0.00 38 1010.0
20260505091017 60 73 4.0 8.0 0.00 0.00 0.00 38 1010.0
20260505090517 60 360 5.0 9.0 0.00 0.00 0.00 37 1010.1
20260505090017 60 74 7.0 10.0 0.00 0.00 0.00 37 1010.1
20260505085518 60 34 5.0 10.0 0.00 0.00 0.00 37 1010.0
20260505085017 60 79 6.0 10.0 0.00 0.00 0.00 37 1010.0
20260505084517 61 65 7.0 11.0 0.00 0.00 0.00 36 1010.1
20260505084017 61 360 5.0 11.0 0.00 0.00 0.00 35 1010.0
20260505083517 61 76 5.0 9.0 0.00 0.00 0.00 35 1009.9
20260505083018 61 360 7.0 9.0 0.00 0.00 0.00 34 1009.9
20260505082517 62 92 2.0 7.0 0.00 0.00 0.00 35 1009.9
20260505082017 62 86 7.0 8.0 0.00 0.00 0.00 35 1010.1
20260505081517 62 80 5.0 8.0 0.00 0.00 0.00 35 1010.1
20260505080517 62 360 5.0 7.0 0.00 0.00 0.00 35 1010.0
20260505075517 62 360 2.0 8.0 0.00 0.00 0.00 34 1010.2
20260505075017 62 360 4.0 6.0 0.00 0.00 0.00 34 1010.2
20260505074018 63 360 3.0 6.0 0.00 0.00 0.00 34 1010.1
20260505073517 63 360 4.0 7.0 0.00 0.00 0.00 33 1010.1
20260505073017 63 103 0.0 8.0 0.00 0.00 0.00 33 1010.1
20260505072517 63 360 2.0 8.0 0.00 0.00 0.00 33 1010.2
20260505072017 63 360 3.0 8.0 0.00 0.00 0.00 33 1010.1
20260505071517 63 360 4.0 7.0 0.00 0.00 0.00 32 1010.0
20260505071017 63 360 1.0 6.0 0.00 0.00 0.00 32 1010.0
20260505070517 63 360 6.0 6.0 0.00 0.00 0.00 32 1010.0
20260505065017 64 360 2.0 9.0 0.00 0.00 0.00 31 1010.0
20260505064017 64 139 1.0 5.0 0.00 0.00 0.00 31 1010.0
20260505063517 64 360 0.0 7.0 0.00 0.00 0.00 30 1010.0
20260505063017 65 360 1.0 7.0 0.00 0.00 0.00 30 1009.9
20260505062517 65 360 1.0 5.0 0.00 0.00 0.00 30 1009.8
20260505062017 65 360 1.0 8.0 0.00 0.00 0.00 30 1009.8
20260505061517 65 195 0.0 11.0 0.00 0.00 0.00 30 1009.7
20260505061017 65 360 8.0 11.0 0.00 0.00 0.00 29 1009.8
20260505060517 65 360 1.0 9.0 0.00 0.00 0.00 29 1009.8
20260505060017 65 360 3.0 9.0 0.00 0.00 0.00 29 1009.8
20260505055517 66 360 2.0 8.0 0.00 0.00 0.00 29 1009.5
20260505055017 66 360 3.0 9.0 0.00 0.00 0.00 28 1009.5
20260505054517 66 360 2.0 11.0 0.00 0.00 0.00 28 1009.5
20260505054017 66 360 3.0 11.0 0.00 0.00 0.00 28 1009.4
20260505053517 66 360 5.0 11.0 0.00 0.00 0.00 28 1009.5
20260505053017 66 360 3.0 11.0 0.00 0.00 0.00 28 1009.4
20260505052517 66 360 7.0 11.0 0.00 0.00 0.00 28 1009.3
20260505052017 66 360 8.0 11.0 0.00 0.00 0.00 28 1009.2
20260505051517 66 360 5.0 11.0 0.00 0.00 0.00 27 1009.3
20260505051017 67 360 3.0 11.0 0.00 0.00 0.00 27 1009.4
20260505050516 67 360 3.0 15.0 0.00 0.00 0.00 27 1009.6
20260505041517 68 360 2.0 12.0 0.00 0.00 0.00 24 1008.9
20260505041016 68 360 5.0 12.0 0.00 0.00 0.00 24 1008.8
20260505040516 68 360 7.0 11.0 0.00 0.00 0.00 23 1008.8
20260505035516 69 360 6.0 9.0 0.00 0.00 0.00 23 1008.4
20260505035017 69 360 2.0 13.0 0.00 0.00 0.00 22 1008.4
20260505034517 69 360 5.0 13.0 0.00 0.00 0.00 22 1008.3
20260505034016 69 360 2.0 12.0 0.00 0.00 0.00 21 1008.2
20260505033518 69 360 4.0 11.0 0.00 0.00 0.00 21 1007.8
20260505033017 69 360 5.0 10.0 0.00 0.00 0.00 20 1007.8
20260505031517 70 360 6.0 13.0 0.00 0.00 0.00 19 1007.6
20260505031016 70 360 6.0 13.0 0.00 0.00 0.00 19 1007.8
20260505030516 70 360 3.0 12.0 0.00 0.00 0.00 19 1007.6
20260505030016 70 360 7.0 12.0 0.00 0.00 0.00 18 1007.5
20260505025017 71 360 3.0 13.0 0.00 0.00 0.00 18 1007.2
20260505024517 71 360 2.0 13.0 0.00 0.00 0.00 18 1007.1
20260505024017 71 360 6.0 11.0 0.00 0.00 0.00 18 1007.2
20260505023516 71 360 5.0 11.0 0.00 0.00 0.00 18 1007.1
20260505023017 72 360 7.0 13.0 0.00 0.00 0.00 17 1007.3
20260505022516 72 360 6.0 13.0 0.00 0.00 0.00 17 1007.2
20260505022017 72 171 2.0 12.0 0.00 0.00 0.00 17 1007.1
20260505021518 72 360 5.0 12.0 0.00 0.00 0.00 17 1007.1
20260505021016 73 360 5.0 13.0 0.00 0.00 0.00 17 1007.1
20260505015517 73 360 7.0 12.0 0.00 0.00 0.00 17 1006.8
20260505014017 73 360 10.0 16.0 0.00 0.00 0.00 16 1006.8
20260505013516 74 360 4.0 16.0 0.00 0.00 0.00 16 1006.9
20260505012516 74 360 3.0 11.0 0.00 0.00 0.00 15 1006.9
20260505011517 75 360 3.0 11.0 0.00 0.00 0.00 15 1006.8
20260505011016 75 137 4.0 12.0 0.00 0.00 0.00 16 1006.9
20260505010516 75 360 5.0 12.0 0.00 0.00 0.00 15 1007.0
20260505010016 75 360 4.0 12.0 0.00 0.00 0.00 15 1006.9
20260505005518 75 360 9.0 13.0 0.00 0.00 0.00 15 1007.0
20260505005017 75 360 10.0 13.0 0.00 0.00 0.00 14 1007.1
20260505004516 75 360 9.0 15.0 0.00 0.00 0.00 15 1007.1
20260505004016 75 360 4.0 15.0 0.00 0.00 0.00 15 1007.0
20260505003516 75 360 6.0 15.0 0.00 0.00 0.00 14 1007.2
20260505003016 75 360 3.0 12.0 0.00 0.00 0.00 16 1007.2